This is the latest recevied weather packets stored in our database for station/object CQ0XPG-11. If no packets are shown the sender has not sent any weather packets the latest 10 day(s).
| Time | Temp. | Humidity | Pressure | Rain* | Wind** | Luminosity | Snow |
|---|---|---|---|---|---|---|---|
| 1777831905 | 14.44° C | 100% | 1004.2 hPa | 0 mm | - | - | - |
| 1777831292 | 14.44° C | 100% | 1004.1 hPa | 0 mm | - | - | - |
| 1777831005 | 15° C | 100% | 1004.1 hPa | 0 mm | - | - | - |
| 1777830712 | 15.56° C | 100% | 1004.1 hPa | 0 mm | - | - | - |
| 1777830398 | 15.56° C | 100% | 1004.2 hPa | 0 mm | - | - | - |
| 1777830082 | 15.56° C | 100% | 1004.2 hPa | 0 mm | - | - | - |
| 1777829804 | 15.56° C | 100% | 1004.1 hPa | 0 mm | - | - | - |
| 1777829479 | 15.56° C | 100% | 1004 hPa | 0 mm | - | - | - |
| 1777828887 | 16.11° C | 100% | 1004 hPa | 0 mm | - | - | - |
| 1777828584 | 16.11° C | 100% | 1004 hPa | 0 mm | - | - | - |
| 1777828267 | 16.67° C | 100% | 1003.9 hPa | 0 mm | - | - | - |
| 1777827989 | 16.67° C | 100% | 1003.9 hPa | 0 mm | - | - | - |
| 1777827366 | 16.11° C | 100% | 1003.8 hPa | 0 mm | - | - | - |
| 1777826765 | 14.44° C | 100% | 1003.6 hPa | 0 mm | - | - | - |
| 1777826462 | 14.44° C | 100% | 1003.6 hPa | 0 mm | - | - | - |
| 1777826184 | 13.89° C | 100% | 1003.7 hPa | 0 mm | - | - | - |
| 1777825552 | 14.44° C | 100% | 1003.7 hPa | 0 mm | - | - | - |
| 1777825235 | 14.44° C | 100% | 1003.6 hPa | 0 mm | - | - | - |
| 1777824941 | 14.44° C | 100% | 1003.7 hPa | 0 mm | - | - | - |
| 1777824628 | 15° C | 100% | 1003.8 hPa | 0 mm | - | - | - |
| 1777824350 | 15.56° C | 100% | 1003.7 hPa | 0 mm | - | - | - |
| 1777824021 | 16.11° C | 100% | 1003.7 hPa | 0 mm | - | - | - |
| 1777823751 | 16.11° C | 100% | 1003.8 hPa | 0 mm | - | - | - |
| 1777823416 | 16.11° C | 100% | 1003.8 hPa | 0 mm | - | - | - |
| 1777823118 | 16.67° C | 95% | 1003.8 hPa | 0 mm | - | - | - |
* Rain since midnight (hover to see other rain measurements)
** Current wind speed in m/s (hover to see current wind gust speed)